Wetbulb
59.19 58.82 58.39 57.96 57.74 58.20 58.60 58.37 57.42 57.73 58.66 59.29 59.24 59.32 59.47 59.49 59.54 59.63 59.73 59.73 59.62 59.52 59.64 59.58 59.22 58.91 58.64 58.41 58.22 57.98 57.86 57.84 57.60 56.60 55.91 56.37 57.32 57.59 57.60 57.45 57.65 57.67 57.51 57.72 57.75 57.61 57.50 57.58 57.49 57.19 56.57 55.60 55.32 55.16 55.12 55.25 54.63 54.16 53.76 53.52 53.44 52.86 52.33 51.94 52.09 51.75 51.38 51.31 51.81
58.93 58.60 57.81 56.14 56.17 57.27 58.18 57.82 57.41 57.65 58.39 59.42 59.53 59.50 59.49 59.45 59.52 59.60 59.80 59.80 59.76 59.74 59.76 59.73 59.16 58.84 58.75 58.44 58.22 57.85 57.68 57.59 57.39 56.80 56.35 56.54 57.10 57.33 57.40 57.15 57.27 57.32 57.29 57.37 57.35 57.33 57.25 57.21 57.18 57.05 56.53 55.73 55.35 55.08 55.04 55.24 54.83 54.20 53.63 53.13 53.41 53.10 52.65 52.17 52.25 51.83 51.44 51.38 51.59
59.02 58.69 58.36 57.96 57.87 58.06 58.20 57.99 58.08 58.33 58.69 59.38 59.70 59.56 59.54 59.36 59.52 59.72 59.77 59.90 60.09 59.94 59.81 59.62 59.18 58.89 58.75 58.72 58.53 58.14 57.67 57.47 57.39 57.03 56.92 56.71 56.96 57.08 57.03 56.97 56.94 56.82 56.77 57.09 57.20 57.20 57.13 56.96 56.69 56.24 55.89 55.87 55.40 55.08 54.92 54.75 54.32 53.92 53.61 53.21 53.57 53.44 53.02 52.73 52.46 52.23 51.94 51.94 51.60
59.19 58.98 58.73 58.46 58.26 58.20 58.23 58.08 58.12 58.34 58.85 59.32 59.56 59.53 59.35 59.44 59.44 59.68 59.79 59.88 59.89 59.89 59.71 59.59 59.28 58.94 58.77 58.73 58.63 58.37 57.81 56.43 56.87 56.98 56.96 56.81 56.87 56.92 56.86 56.94 56.75 56.80 56.86 57.14 57.25 57.21 56.95 56.68 56.60 56.27 55.95 55.71 55.16 54.92 55.05 55.04 54.19 53.95 53.95 53.87 53.88 53.67 53.44 53.25 52.94 52.73 52.46 52.25 51.86
59.19 58.92 58.71 58.44 58.24 58.16 58.29 58.21 58.13 58.46 58.78 59.23 59.37 59.43 59.25 59.34 59.34 59.48 59.48 59.40 59.57 59.75 59.88 59.90 59.50 59.18 58.86 58.78 58.60 58.60 58.32 57.30 55.26 55.84 56.92 56.78 56.88 57.04 56.89 56.84 56.88 56.92 56.98 57.06 57.17 57.06 56.82 56.35 56.49 56.38 56.14 55.67 55.39 55.34 55.34 55.14 54.51 54.32 54.21 54.39 54.19 54.03 53.82 53.51 53.33 53.12 52.78 52.41 52.09
59.17 59.01 58.82 58.64 58.36 58.31 58.41 58.33 58.24 58.38 58.71 59.05 59.07 58.94 58.95 59.13 59.09 59.09 59.09 59.13 59.49 59.75 59.66 58.85 58.55 58.28 58.24 58.78 58.71 58.49 58.40 58.37 57.26 56.89 56.59 56.77 56.85 56.90 56.90 56.93 57.01 57.09 57.11 57.17 57.04 56.90 56.63 56.35 56.25 56.21 56.03 55.74 55.71 55.67 55.41 54.96 54.64 54.44 54.38 54.28 54.28 54.14 54.07 53.75 53.67 53.36 53.05 52.41 52.15
59.35 59.10 58.84 58.79 58.44 58.55 58.51 58.33 58.30 58.51 58.62 58.84 58.75 58.60 58.76 58.94 58.86 58.91 58.86 59.13 59.58 59.58 59.10 58.00 58.19 58.41 58.58 58.80 58.53 58.40 58.41 58.32 58.19 57.86 57.35 56.65 56.78 56.77 56.85 56.93 57.09 57.20 57.26 57.25 57.12 56.84 56.67 56.42 56.22 55.78 55.08 54.48 55.16 55.41 55.24 55.08 54.75 54.43 54.28 54.21 54.28 54.28 54.21 53.90 53.79 53.59 53.12 52.57 52.07
59.58 59.21 58.97 58.91 58.64 58.62 58.53 58.49 58.25 58.21 58.35 58.48 58.44 58.38 58.57 58.84 58.82 58.78 58.82 59.17 59.32 59.22 58.94 58.48 59.03 59.14 59.05 58.82 58.55 58.37 58.24 58.26 58.08 57.99 57.84 57.62 57.09 56.97 56.88 57.04 57.03 57.09 57.26 57.29 57.03 56.82 56.67 56.49 56.30 55.86 55.45 55.07 55.16 55.18 54.90 54.82 54.48 54.35 54.12 54.17 54.30 54.42 54.51 54.57 54.49 53.97 53.36 52.65 52.18
59.37 59.21 59.04 58.98 58.81 58.81 58.65 58.62 58.25 58.05 58.01 58.15 58.14 58.17 58.37 58.64 58.71 58.67 58.60 58.79 58.73 58.84 58.94 58.91 59.03 59.25 59.09 58.90 58.66 58.46 58.29 58.20 58.08 58.00 57.94 57.90 57.53 57.30 57.06 56.93 56.97 56.93 57.13 57.32 57.02 56.72 56.49 56.33 56.08 55.92 55.69 55.48 55.23 55.13 54.99 54.57 54.38 54.20 54.14 54.28 54.26 54.29 54.44 54.63 54.41 54.05 53.61 53.03 52.31
59.24 59.26 59.02 58.86 58.70 58.65 58.53 58.60 58.35 57.97 57.86 58.04 57.98 57.96 57.61 56.28 57.38 58.02 58.51 58.38 58.29 58.63 59.05 58.94 58.94 58.98 58.87 58.90 58.75 58.59 58.49 58.34 58.16 57.98 57.81 57.63 57.42 57.50 57.35 57.17 56.85 56.85 56.92 57.06 57.09 56.73 56.57 56.22 56.02 55.89 55.95 55.77 55.34 55.11 54.76 54.48 54.18 54.06 54.21 54.37 54.25 54.05 53.97 54.06 54.08 53.74 53.39 53.04 52.64
59.29 59.13 59.00 58.84 58.81 58.53 58.42 58.56 58.23 57.95 57.79 57.88 57.86 57.89 57.43 56.29 57.20 57.90 58.21 58.34 58.61 58.76 58.81 58.72 58.64 58.60 58.64 58.73 58.71 58.66 58.64 58.58 58.26 58.07 57.74 57.47 57.31 57.34 57.52 57.19 56.97 56.68 56.63 56.90 57.04 56.98 56.66 56.37 56.04 55.73 55.63 55.77 55.28 55.01 54.60 54.36 54.12 53.95 54.12 54.43 54.16 53.86 53.59 53.52 53.73 53.67 53.43 53.14 52.72
59.41 59.22 59.08 59.02 58.90 58.63 58.51 58.55 58.26 57.92 57.77 57.92 57.81 57.85 57.83 57.83 57.99 57.95 58.10 58.40 58.44 58.48 58.48 58.68 58.48 58.30 58.35 58.45 58.54 58.27 58.27 58.58 58.44 58.07 57.66 57.46 57.46 57.36 57.35 57.07 56.80 56.57 56.43 56.65 56.99 56.97 56.93 56.53 56.02 55.73 55.42 55.32 55.28 55.13 54.84 54.26 54.02 53.87 53.81 54.00 54.00 53.67 53.34 53.27 53.48 53.69 53.72 53.60 52.92
59.52 59.33 59.17 59.11 58.95 58.70 58.59 58.51 58.41 58.15 57.87 57.81 57.75 57.77 57.66 57.78 57.76 57.78 57.93 58.40 58.12 58.17 58.38 58.31 58.13 58.04 58.06 58.12 58.26 58.27 58.27 58.39 58.22 57.86 57.60 57.48 57.43 57.40 57.30 57.04 56.83 56.71 56.52 56.57 56.82 56.96 56.86 56.71 56.30 55.83 55.55 55.28 55.30 55.17 54.95 54.45 54.06 53.82 53.63 53.73 53.62 53.43 53.31 53.26 53.42 53.59 53.58 53.38 53.00
59.68 59.50 59.28 59.10 58.82 58.68 58.51 58.46 58.37 58.12 57.98 57.77 57.71 57.81 57.76 57.83 57.63 57.61 57.88 58.30 58.12 58.15 58.13 58.04 57.66 57.58 57.76 58.04 58.12 58.17 58.17 58.17 58.11 57.97 57.88 57.69 57.74 57.60 57.49 57.44 57.23 57.16 56.92 56.62 56.75 56.71 56.94 56.71 56.57 56.21 55.89 55.30 55.31 55.20 54.96 54.58 54.35 54.11 53.90 53.66 53.39 53.28 53.36 53.36 53.43 53.43 53.23 52.93 52.64
59.68 59.50 59.33 59.08 58.89 58.71 58.57 58.53 58.40 58.26 58.03 57.91 57.87 57.88 57.77 57.89 57.36 57.35 57.63 58.21 58.15 58.15 58.02 57.93 57.64 57.27 57.43 58.00 58.17 58.15 58.12 58.08 58.08 58.08 57.99 57.85 57.99 57.90 57.86 57.81 57.72 57.51 57.33 56.95 56.72 56.69 56.75 56.79 56.74 56.55 56.35 55.75 55.50 55.41 55.21 54.99 54.67 54.46 54.21 54.05 53.67 53.61 53.50 53.65 53.61 53.51 53.34 52.85 52.70
59.70 59.52 59.24 59.06 58.79 58.70 58.59 58.56 58.53 58.31 58.16 58.04 58.02 58.04 57.92 57.87 57.66 57.44 57.48 57.93 58.12 58.09 58.00 57.85 57.76 57.75 57.66 57.43 57.97 58.15 58.30 58.17 58.17 58.17 58.08 58.12 58.08 58.08 57.99 57.85 57.81 57.63 57.51 57.09 56.85 56.75 56.71 56.90 56.94 56.86 56.56 56.17 55.92 55.78 55.47 55.35 55.03 54.76 54.52 54.26 54.17 54.00 53.89 53.65 53.69 53.59 53.39 53.04 52.88
59.68 59.50 59.32 59.08 58.77 58.52 58.48 58.48 58.61 58.51 58.34 58.23 58.20 58.10 57.98 57.98 58.03 57.37 56.94 57.25 57.90 57.99 57.90 57.79 57.93 57.94 57.82 57.17 57.58 57.97 58.22 58.23 58.15 58.15 58.15 58.08 58.08 57.99 57.92 57.92 57.73 57.50 57.43 57.07 56.65 56.55 56.53 56.81 57.02 57.02 56.78 56.49 56.20 56.01 55.87 55.63 55.36 55.06 54.68 54.46 54.45 54.33 54.06 53.50 53.54 53.71 53.59 53.23 52.89
59.55 59.39 59.22 58.96 58.67 58.43 58.40 58.32 58.60 58.59 58.47 58.32 58.26 58.20 58.20 58.09 57.86 57.46 57.13 57.02 57.74 57.84 57.80 57.71 57.98 58.07 57.89 57.56 57.52 57.44 57.52 57.89 57.95 58.02 58.02 58.05 58.06 58.10 57.92 57.79 57.57 57.50 57.26 57.05 56.62 56.39 56.47 56.63 56.81 56.94 56.90 56.63 56.49 56.39 56.23 55.93 55.63 55.30 54.95 54.60 54.52 54.48 54.19 53.82 53.89 53.87 53.78 53.36 53.03
59.50 59.39 59.23 58.97 58.62 58.32 58.06 57.89 58.23 58.40 58.61 58.40 58.35 58.37 58.18 58.02 57.91 57.61 57.44 57.44 57.36 57.53 57.72 57.61 57.72 57.79 57.67 57.33 57.20 56.69 56.46 57.40 57.64 57.77 58.04 58.20 58.10 57.95 57.90 57.82 57.71 57.52 57.26 56.88 56.42 56.30 56.22 56.52 56.70 56.82 56.71 56.62 56.48 56.52 56.47 56.25 56.03 55.60 55.15 54.71 54.46 54.32 54.14 53.93 53.93 53.78 53.68 53.54 53.22
59.36 59.32 59.11 58.99 58.64 58.34 58.18 57.87 58.16 58.34 58.44 58.32 58.26 58.25 58.20 57.98 57.83 57.65 57.40 57.28 57.13 57.33 57.52 57.45 57.35 57.27 57.22 57.05 57.03 56.65 56.46 56.83 57.38 57.70 57.94 58.09 58.05 57.90 57.82 57.82 57.68 57.43 57.12 56.62 56.36 56.18 56.25 56.38 56.55 56.66 56.56 56.49 56.41 56.41 56.44 56.25 55.95 55.62 55.13 54.71 54.30 54.13 53.93 53.81 53.85 53.76 53.63 53.51 53.50
59.17 59.17 59.17 59.08 58.75 58.46 58.25 58.18 58.48 58.48 58.37 58.23 58.17 58.06 57.96 57.82 57.76 57.48 57.21 56.93 56.99 57.09 57.21 57.16 56.97 56.90 56.85 56.80 56.63 56.67 56.43 56.38 56.96 57.34 57.48 57.80 57.73 57.76 57.66 57.56 57.44 57.25 57.00 56.76 56.60 56.44 56.40 56.44 56.52 56.48 56.44 56.11 56.03 56.06 55.96 55.72 55.43 55.13 54.72 54.45 54.25 54.07 53.97 53.81 53.81 53.81 53.66 53.58 53.48
59.16 59.23 59.28 59.12 58.91 58.56 58.27 58.29 58.39 58.39 58.33 58.02 57.79 57.79 57.73 57.63 57.48 57.43 57.15 56.89 56.91 56.85 56.97 56.87 56.84 56.80 56.53 56.49 56.33 56.37 56.30 56.01 56.54 56.79 57.05 57.27 57.43 57.49 57.47 57.40 57.24 57.03 56.76 56.77 56.79 56.71 56.59 56.46 56.41 56.19 55.96 55.57 55.32 55.04 54.99 54.69 54.56 54.29 54.02 53.76 53.76 53.87 53.92 53.95 53.98 53.83 53.87 53.71 53.59
59.10 59.26 59.29 59.24 58.95 58.12 57.52 57.88 58.20 58.17 58.11 57.77 57.69 57.60 57.50 57.45 57.42 57.36 57.12 57.03 56.50 56.44 56.55 56.61 56.65 56.65 56.47 56.44 56.41 56.35 56.26 56.04 56.13 56.08 56.25 56.57 56.94 57.08 57.19 57.34 57.19 56.76 56.66 56.58 56.79 56.87 56.77 56.48 56.08 55.78 55.54 55.14 54.62 54.26 53.96 53.73 53.55 53.50 53.30 53.03 53.08 53.31 53.42 53.62 53.76 53.86 53.81 53.84 53.78
59.14 59.31 59.31 59.29 58.94 58.34 57.92 57.92 57.96 57.87 57.70 57.58 57.46 57.39 57.38 57.22 57.23 57.16 57.02 56.81 56.48 56.40 56.35 56.53 56.56 56.58 56.51 56.57 56.51 56.33 56.20 55.96 55.70 55.53 55.59 55.84 56.08 56.25 56.26 56.51 56.41 56.23 56.23 56.25 55.47 55.13 55.10 55.45 55.76 55.61 55.14 54.82 54.19 53.71 53.23 52.98 52.94 52.82 52.73 52.54 52.43 52.59 52.76 53.07 53.21 53.30 53.38 53.49 53.54
58.88 58.88 58.88 59.04 58.67 58.34 58.04 57.79 57.70 57.53 57.47 57.30 57.35 57.28 57.09 57.13 57.01 57.04 56.96 56.77 56.44 56.35 56.33 56.27 56.39 56.47 56.61 56.60 56.54 56.41 56.28 55.94 55.50 55.30 55.11 55.02 55.02 55.14 55.16 55.09 55.34 55.37 55.14 53.98 50.83 49.55 49.61 50.88 53.10 54.50 55.01 54.61 53.95 53.48 52.81 52.20 52.11 52.07 52.08 52.01 51.91 52.02 52.08 52.12 52.19 52.40 52.53 52.65 52.87
58.61 58.61 58.72 58.77 58.61 58.19 57.92 57.65 57.47 57.49 57.40 57.25 57.16 57.06 56.97 56.96 56.99 56.91 56.73 56.51 56.35 56.23 56.35 56.18 56.39 55.86 55.62 56.52 56.42 56.35 56.19 56.04 55.60 55.15 54.83 54.76 54.40 54.31 54.18 54.16 54.11 54.29 53.69 51.45 47.97 46.50 46.41 47.11 48.37 50.39 52.51 54.57 53.90 53.20 52.53 52.02 51.71 51.57 51.51 51.49 51.53 51.64 51.63 51.74 51.78 51.71 51.76 51.84 52.02
58.21 58.31 58.37 58.62 58.38 58.01 57.64 57.68 57.57 57.42 57.34 57.19 56.92 56.90 56.87 56.97 56.98 56.83 56.56 56.37 56.30 56.27 56.27 56.37 56.29 55.09 54.32 56.24 56.20 55.99 55.81 55.62 55.21 54.87 54.44 54.28 53.95 53.74 53.52 53.58 53.62 53.64 52.51 49.31 46.46 45.24 45.11 45.46 45.89 47.11 49.38 53.10 53.40 52.96 52.26 51.93 51.38 51.21 51.16 51.22 51.44 51.51 51.51 51.61 51.69 51.72 51.70 51.67 51.48
57.94 58.03 58.11 58.20 57.93 57.79 57.67 57.58 57.52 57.33 57.12 56.99 56.84 56.86 56.91 56.93 56.85 56.68 56.51 56.39 56.32 56.31 56.22 56.32 56.13 55.74 55.66 56.25 55.84 55.47 54.95 54.83 54.70 54.55 54.35 54.08 53.81 53.60 53.59 53.52 53.63 52.77 50.66 47.30 45.50 44.76 44.51 44.59 44.77 45.03 46.33 49.14 52.23 52.92 52.35 51.87 51.47 51.24 51.16 51.24 51.47 51.60 51.78 52.00 52.34 52.51 52.41 52.19 51.25
57.67 57.76 57.86 57.72 57.62 57.61 57.50 57.54 57.29 57.08 57.09 57.04 56.96 56.93 56.94 56.76 56.67 56.50 56.50 56.33 56.15 56.00 56.08 56.27 56.06 56.07 56.08 55.61 55.19 54.89 54.51 54.29 54.35 54.31 54.14 53.84 53.77 53.71 53.66 53.61 53.43 51.53 48.61 45.32 44.97 44.67 44.50 44.42 44.12 43.82 44.25 46.15 50.63 52.70 53.01 52.44 52.18 51.76 51.57 51.86 52.12 52.24 52.34 52.48 52.76 52.68 52.37 51.80 50.77
57.71 57.59 57.61 57.38 57.46 57.46 57.38 57.37 57.35 57.27 57.18 57.21 56.93 56.86 56.71 56.50 56.41 56.33 56.19 56.02 55.92 55.75 55.90 56.20 56.02 55.62 55.20 54.91 54.80 54.54 54.35 54.24 54.25 54.12 54.05 53.66 53.65 53.72 53.64 53.09 53.59 52.07 48.93 44.62 44.53 44.58 44.58 44.59 44.03 43.38 42.91 43.47 47.64 51.16 53.12 53.06 52.83 52.33 51.81 51.73 51.54 51.53 51.49 51.64 51.46 51.15 50.70 50.37 49.62
57.69 57.63 57.51 57.25 57.28 57.26 57.29 57.46 57.43 57.36 57.28 57.09 56.86 56.55 56.44 56.27 56.20 56.10 56.03 55.92 55.77 55.26 55.01 55.38 55.33 54.92 54.70 54.75 54.70 54.53 54.25 54.24 54.31 54.07 53.94 53.69 52.96 53.07 53.48 53.66 53.69 52.19 49.11 44.54 43.96 43.74 43.78 43.83 43.58 43.11 42.38 41.70 45.59 49.77 52.70 52.78 52.00 51.32 50.59 50.32 50.41 50.27 50.08 49.65 48.03 47.09 47.14 47.76 47.59
57.75 57.75 57.52 57.29 57.18 57.27 57.36 57.36 57.45 57.34 57.25 56.95 56.70 56.45 56.30 56.12 56.09 56.10 56.13 55.97 55.61 55.25 54.82 54.82 54.81 54.74 54.47 54.49 54.47 54.31 54.21 54.19 54.11 54.06 54.01 53.95 53.75 53.69 53.69 53.51 53.68 51.77 48.22 44.06 43.08 42.89 42.98 43.03 42.64 42.30 41.75 40.63 44.17 48.42 51.78 52.14 51.06 49.98 48.86 47.18 45.97 45.38 45.20 45.46 45.23 45.23 45.50 46.32 46.41
57.91 57.78 57.69 57.47 57.38 57.25 57.42 57.34 57.42 57.28 57.12 56.87 56.60 56.43 56.34 56.30 56.22 56.30 56.17 55.96 55.76 55.47 55.20 54.86 54.74 54.57 54.38 54.38 54.23 54.21 54.04 53.94 53.91 53.39 52.97 53.18 53.66 53.69 53.60 53.46 52.42 47.69 42.20 39.64 38.93 39.05 39.83 41.02 41.55 41.53 41.03 39.79 43.54 47.64 50.73 51.44 50.47 48.30 45.37 42.66 41.32 40.68 40.46 40.64 41.59 42.36 43.17 44.02 43.93
57.91 57.80 57.70 57.59 57.36 57.42 57.53 57.42 57.37 57.28 57.12 56.87 56.71 56.60 56.54 56.37 56.17 56.20 56.09 55.79 55.96 55.84 55.62 55.36 55.13 55.01 54.87 54.65 54.37 54.21 53.94 53.56 53.83 53.81 53.77 53.75 53.96 53.86 53.83 54.28 48.24 41.65 36.94 36.29 36.22 36.55 37.42 38.75 39.92 40.64 40.42 39.33 43.75 47.60 49.87 49.26 46.33 43.35 40.82 39.20 38.45 38.01 37.62 37.62 37.98 38.62 39.20 39.78 39.94
57.76 57.71 57.64 57.59 57.53 57.50 57.53 57.42 57.37 57.28 57.12 56.84 56.71 56.63 56.60 56.59 56.37 56.34 56.03 55.19 55.18 55.70 56.04 55.69 55.49 55.34 55.08 54.82 54.62 54.17 53.67 53.26 53.64 53.63 53.50 53.56 53.95 54.08 53.30 50.87 44.24 39.74 37.27 36.91 36.73 36.78 37.23 37.88 38.76 39.80 40.74 41.57 46.38 48.64 48.03 44.53 41.60 39.44 38.00 37.01 36.53 36.06 35.77 35.74 35.59 35.89 36.46 37.17 37.35
57.83 57.68 57.47 57.42 57.42 57.42 57.42 57.45 57.42 57.17 57.00 56.92 56.84 56.87 56.79 56.78 56.87 56.78 56.20 54.77 54.91 55.52 55.92 55.77 55.60 55.24 54.91 54.37 54.35 53.93 53.58 53.81 53.06 51.53 49.98 49.20 50.91 51.79 50.61 46.11 42.75 39.66 37.61 37.05 36.82 36.82 37.05 37.80 38.84 40.44 43.01 46.60 48.48 47.18 44.05 40.91 38.79 37.26 36.00 35.09 34.46 34.10 34.03 34.03 34.01 34.14 34.58 35.03 35.37
57.90 57.75 57.43 57.31 57.15 57.23 57.23 57.26 57.17 57.11 56.96 56.96 57.03 57.01 57.12 57.09 57.20 57.12 56.62 55.29 55.78 55.92 55.87 55.76 55.45 55.18 55.14 55.27 53.24 51.39 49.97 49.42 48.00 45.17 42.04 40.04 42.50 44.05 44.32 43.11 41.16 39.06 37.50 37.05 36.91 36.91 37.27 38.16 40.08 42.52 45.46 48.31 46.91 44.23 41.27 38.94 37.05 35.57 34.38 33.51 32.95 32.70 32.79 32.79 32.79 32.97 33.02 33.13 33.49
58.08 57.74 57.51 57.27 57.17 56.98 57.01 56.98 56.95 56.80 56.77 56.76 56.85 57.19 57.42 57.48 57.67 57.39 56.68 55.14 56.18 56.35 56.20 56.12 56.12 55.20 53.84 52.30 47.75 42.86 39.38 38.25 38.36 38.31 38.12 37.16 37.26 38.07 39.20 39.74 39.41 38.59 37.78 37.23 37.09 37.26 37.91 39.05 41.61 43.88 45.78 47.05 44.76 42.21 39.75 37.50 35.55 34.10 33.06 32.45 32.09 31.96 32.07 32.14 31.96 31.89 31.96 32.12 32.37
58.21 57.90 57.61 57.29 57.02 56.97 56.78 56.68 56.49 56.35 56.44 56.33 56.50 56.96 57.34 57.94 58.00 57.53 56.68 55.66 56.77 56.26 55.01 53.64 52.87 50.72 46.98 41.78 39.54 37.60 36.37 36.26 36.18 36.38 36.49 36.53 36.35 36.35 36.71 37.61 38.06 37.97 37.61 37.15 37.36 37.81 38.71 40.22 42.70 43.93 44.48 44.44 43.02 40.88 38.45 36.06 34.21 32.97 32.14 31.51 30.99 30.86 30.88 30.97 30.97 30.81 30.95 31.33 32.01
58.06 57.85 57.57 57.41 57.09 56.96 56.88 56.54 56.38 56.17 56.02 55.76 55.77 56.16 56.61 56.48 56.22 55.52 54.56 53.27 52.64 50.63 47.87 45.10 43.28 41.90 40.42 38.49 37.08 35.72 34.85 34.82 34.82 34.74 34.76 34.97 35.22 35.40 35.67 36.31 36.80 36.89 36.89 37.07 37.91 38.71 39.57 41.07 43.02 43.53 43.45 43.28 41.77 39.72 37.56 35.26 33.40 32.07 31.17 30.69 30.06 29.72 29.54 29.72 29.77 29.70 29.70 29.97 30.76
58.20 57.97 57.46 57.22 57.22 57.16 56.89 56.68 56.53 56.06 55.54 54.93 54.82 54.27 53.30 51.73 51.27 50.52 49.23 47.29 45.28 43.38 41.95 40.74 39.94 39.05 38.08 36.81 35.73 34.56 33.78 33.53 33.46 33.57 33.68 33.58 33.86 34.13 34.47 34.79 35.33 35.78 36.49 37.16 38.23 39.44 40.57 41.74 42.85 42.86 42.47 42.02 40.55 38.76 36.78 34.85 32.84 31.22 30.09 29.79 29.33 28.81 28.45 28.36 28.63 28.69 28.77 28.79 29.15
MSLP
1005.21 1005.37 1005.57 1005.77 1005.81 1006.01 1006.17 1006.33 1006.49 1006.61 1006.77 1006.89 1007.05 1007.21 1007.33 1007.49 1007.69 1007.89 1008.05 1008.25 1008.45 1008.61 1008.81 1009.01 1009.25 1009.49 1009.77 1010.05 1010.25 1010.25 1010.33 1010.37 1010.49 1010.57 1010.69 1010.93 1011.21 1011.45 1011.57 1011.77 1012.01 1012.33 1012.69 1013.13 1013.49 1013.77 1013.81 1013.93 1014.05 1014.13 1014.25 1014.37 1014.45 1014.49 1014.45 1014.37 1014.33 1014.33 1014.37 1014.49 1014.61 1014.81 1015.01 1015.13 1015.25 1015.45 1015.57 1015.61 1015.61
1005.05 1005.25 1005.45 1005.69 1005.89 1006.01 1006.13 1006.33 1006.45 1006.57 1006.69 1006.89 1007.01 1007.13 1007.25 1007.45 1007.49 1007.69 1007.93 1008.13 1008.17 1008.45 1008.69 1008.93 1009.13 1009.45 1009.69 1010.01 1010.17 1010.33 1010.37 1010.45 1010.57 1010.61 1010.77 1010.89 1011.05 1011.33 1011.45 1011.61 1011.77 1012.01 1012.37 1012.77 1013.13 1013.37 1013.57 1013.69 1013.81 1013.93 1014.01 1014.05 1014.17 1014.25 1014.25 1014.17 1014.17 1014.25 1014.33 1014.45 1014.49 1014.69 1014.93 1015.05 1015.13 1015.25 1015.45 1015.57 1015.57
1004.93 1005.21 1005.37 1005.57 1005.77 1005.89 1006.01 1006.17 1006.37 1006.49 1006.61 1006.81 1007.01 1007.13 1007.25 1007.45 1007.49 1007.61 1007.89 1008.05 1008.13 1008.33 1008.61 1008.89 1009.05 1009.33 1009.49 1009.81 1010.05 1010.17 1010.33 1010.45 1010.57 1010.69 1010.81 1010.89 1011.05 1011.25 1011.37 1011.45 1011.61 1011.81 1012.13 1012.49 1012.81 1013.13 1013.37 1013.49 1013.61 1013.77 1013.81 1013.93 1014.01 1014.05 1014.13 1014.13 1014.13 1014.13 1014.17 1014.37 1014.45 1014.61 1014.89 1015.01 1015.05 1015.21 1015.33 1015.45 1015.45
1004.89 1005.05 1005.25 1005.45 1005.61 1005.77 1005.89 1006.05 1006.25 1006.37 1006.57 1006.77 1006.93 1007.13 1007.25 1007.37 1007.49 1007.61 1007.81 1008.01 1008.13 1008.37 1008.57 1008.77 1008.93 1009.21 1009.45 1009.77 1009.93 1010.13 1010.25 1010.45 1010.49 1010.69 1010.81 1010.93 1011.01 1011.21 1011.33 1011.37 1011.57 1011.77 1012.01 1012.37 1012.69 1013.01 1013.25 1013.45 1013.57 1013.61 1013.69 1013.81 1013.89 1014.01 1014.05 1014.05 1014.01 1014.01 1014.05 1014.25 1014.33 1014.49 1014.69 1014.81 1014.89 1015.05 1015.21 1015.33 1015.37
1004.81 1004.93 1005.13 1005.33 1005.49 1005.61 1005.69 1005.93 1006.13 1006.33 1006.45 1006.69 1006.89 1007.05 1007.21 1007.37 1007.49 1007.57 1007.77 1008.01 1008.13 1008.25 1008.45 1008.61 1008.77 1009.01 1009.33 1009.61 1009.81 1010.01 1010.17 1010.37 1010.57 1010.61 1010.69 1010.89 1011.01 1011.13 1011.25 1011.45 1011.57 1011.77 1012.01 1012.37 1012.69 1012.93 1013.21 1013.37 1013.45 1013.49 1013.57 1013.77 1013.81 1013.89 1013.89 1013.89 1013.89 1013.93 1014.01 1014.13 1014.17 1014.37 1014.49 1014.69 1014.77 1014.89 1015.01 1015.21 1015.25
1004.69 1004.89 1005.05 1005.25 1005.45 1005.57 1005.69 1005.93 1006.13 1006.25 1006.37 1006.61 1006.81 1007.01 1007.13 1007.25 1007.37 1007.57 1007.69 1007.89 1008.01 1008.13 1008.37 1008.57 1008.69 1008.93 1009.21 1009.45 1009.57 1009.81 1010.05 1010.33 1010.49 1010.61 1010.69 1010.89 1011.01 1011.13 1011.37 1011.57 1011.77 1011.89 1012.13 1012.45 1012.69 1012.93 1013.05 1013.21 1013.25 1013.33 1013.45 1013.57 1013.61 1013.69 1013.69 1013.77 1013.81 1013.89 1013.93 1014.05 1014.13 1014.25 1014.37 1014.57 1014.61 1014.77 1014.89 1015.05 1015.13
1004.49 1004.69 1004.89 1005.05 1005.33 1005.49 1005.61 1005.81 1006.05 1006.25 1006.37 1006.49 1006.69 1006.81 1007.01 1007.05 1007.25 1007.37 1007.57 1007.69 1007.89 1008.05 1008.33 1008.45 1008.61 1008.81 1009.01 1009.21 1009.45 1009.69 1009.93 1010.13 1010.37 1010.57 1010.61 1010.89 1011.05 1011.25 1011.45 1011.61 1011.81 1012.01 1012.25 1012.49 1012.69 1012.81 1012.89 1012.89 1013.01 1013.13 1013.25 1013.37 1013.49 1013.49 1013.49 1013.57 1013.61 1013.69 1013.81 1013.89 1014.01 1014.13 1014.25 1014.33 1014.49 1014.61 1014.77 1014.89 1015.05
1004.37 1004.57 1004.81 1005.01 1005.21 1005.37 1005.57 1005.77 1006.01 1006.17 1006.33 1006.45 1006.61 1006.69 1006.81 1006.93 1007.13 1007.33 1007.49 1007.61 1007.81 1008.01 1008.17 1008.33 1008.49 1008.61 1008.81 1008.93 1009.25 1009.49 1009.77 1009.93 1010.17 1010.37 1010.61 1010.81 1011.01 1011.21 1011.45 1011.61 1011.81 1012.01 1012.17 1012.37 1012.49 1012.61 1012.61 1012.69 1012.77 1012.81 1013.01 1013.13 1013.25 1013.25 1013.33 1013.37 1013.45 1013.57 1013.69 1013.77 1013.89 1013.93 1014.05 1014.17 1014.33 1014.45 1014.61 1014.77 1014.93
1004.33 1004.49 1004.69 1004.89 1005.13 1005.33 1005.49 1005.69 1005.89 1006.05 1006.17 1006.33 1006.49 1006.61 1006.77 1006.93 1007.05 1007.21 1007.37 1007.57 1007.69 1007.89 1008.05 1008.25 1008.45 1008.49 1008.61 1008.81 1009.05 1009.33 1009.49 1009.77 1009.93 1010.17 1010.45 1010.61 1010.89 1011.13 1011.37 1011.57 1011.77 1011.89 1012.01 1012.13 1012.17 1012.17 1012.25 1012.45 1012.49 1012.57 1012.69 1012.89 1012.93 1013.01 1013.05 1013.21 1013.33 1013.37 1013.49 1013.57 1013.69 1013.81 1013.93 1014.01 1014.13 1014.33 1014.45 1014.57 1014.77
1004.17 1004.45 1004.61 1004.81 1005.01 1005.25 1005.45 1005.57 1005.81 1006.01 1006.13 1006.25 1006.45 1006.57 1006.77 1006.89 1007.01 1007.13 1007.33 1007.37 1007.57 1007.81 1008.01 1008.17 1008.37 1008.45 1008.57 1008.61 1008.89 1009.13 1009.33 1009.49 1009.77 1010.01 1010.25 1010.49 1010.77 1011.01 1011.25 1011.45 1011.57 1011.77 1011.81 1011.81 1011.81 1011.89 1011.93 1012.05 1012.13 1012.25 1012.33 1012.49 1012.57 1012.69 1012.81 1012.93 1013.05 1013.21 1013.25 1013.37 1013.49 1013.69 1013.81 1013.89 1014.01 1014.13 1014.33 1014.45 1014.49
1004.01 1004.33 1004.49 1004.77 1004.93 1005.21 1005.37 1005.49 1005.77 1005.93 1006.05 1006.17 1006.33 1006.49 1006.69 1006.81 1006.93 1007.05 1007.21 1007.37 1007.57 1007.77 1007.93 1008.13 1008.25 1008.33 1008.45 1008.57 1008.77 1008.93 1009.13 1009.37 1009.61 1009.89 1010.05 1010.33 1010.57 1010.81 1011.05 1011.25 1011.37 1011.49 1011.57 1011.57 1011.61 1011.61 1011.69 1011.77 1011.89 1012.01 1012.05 1012.17 1012.33 1012.45 1012.61 1012.77 1012.89 1013.01 1013.13 1013.21 1013.33 1013.49 1013.69 1013.77 1013.89 1014.01 1014.13 1014.17 1014.25
1003.89 1004.13 1004.37 1004.57 1004.81 1005.05 1005.25 1005.45 1005.61 1005.81 1005.93 1006.05 1006.25 1006.45 1006.57 1006.69 1006.81 1007.01 1007.13 1007.33 1007.49 1007.69 1007.81 1008.01 1008.17 1008.25 1008.37 1008.49 1008.61 1008.89 1009.05 1009.25 1009.49 1009.69 1009.93 1010.17 1010.45 1010.69 1010.89 1011.05 1011.21 1011.33 1011.37 1011.37 1011.37 1011.49 1011.57 1011.57 1011.57 1011.69 1011.81 1011.93 1012.05 1012.25 1012.45 1012.61 1012.81 1013.01 1013.01 1013.01 1013.21 1013.33 1013.45 1013.61 1013.77 1013.89 1013.93 1014.05 1014.17
1003.69 1004.01 1004.25 1004.45 1004.69 1004.93 1005.21 1005.33 1005.49 1005.69 1005.89 1006.01 1006.13 1006.33 1006.45 1006.57 1006.77 1006.93 1007.13 1007.25 1007.37 1007.57 1007.77 1007.89 1008.05 1008.25 1008.33 1008.45 1008.61 1008.81 1009.01 1009.13 1009.37 1009.61 1009.81 1010.05 1010.33 1010.57 1010.77 1010.93 1011.05 1011.21 1011.25 1011.25 1011.21 1011.21 1011.33 1011.45 1011.49 1011.57 1011.69 1011.81 1012.01 1012.17 1012.33 1012.57 1012.77 1012.89 1013.01 1013.05 1013.13 1013.21 1013.25 1013.45 1013.57 1013.69 1013.81 1013.93 1014.01
1003.61 1003.89 1004.13 1004.37 1004.61 1004.81 1005.05 1005.25 1005.45 1005.61 1005.77 1005.89 1006.01 1006.17 1006.37 1006.49 1006.69 1006.89 1007.05 1007.21 1007.33 1007.49 1007.69 1007.81 1008.01 1008.13 1008.25 1008.37 1008.57 1008.77 1008.89 1009.05 1009.33 1009.49 1009.69 1009.93 1010.17 1010.37 1010.61 1010.81 1011.01 1011.13 1011.21 1011.21 1011.01 1011.01 1011.05 1011.21 1011.37 1011.57 1011.69 1011.81 1011.93 1012.05 1012.25 1012.49 1012.61 1012.77 1012.89 1013.01 1013.05 1013.05 1013.13 1013.25 1013.45 1013.57 1013.77 1013.89 1013.89
1003.57 1003.77 1004.01 1004.17 1004.45 1004.69 1004.93 1005.13 1005.33 1005.49 1005.69 1005.81 1005.93 1006.13 1006.33 1006.45 1006.61 1006.81 1007.01 1007.13 1007.25 1007.37 1007.57 1007.77 1007.93 1008.13 1008.25 1008.33 1008.49 1008.69 1008.81 1009.05 1009.21 1009.37 1009.61 1009.81 1010.01 1010.25 1010.45 1010.57 1010.81 1011.01 1011.05 1011.01 1010.93 1010.89 1010.89 1011.01 1011.21 1011.45 1011.69 1011.81 1011.89 1012.01 1012.13 1012.33 1012.45 1012.61 1012.77 1012.89 1012.93 1012.93 1013.01 1013.05 1013.25 1013.37 1013.49 1013.61 1013.69
1003.37 1003.61 1003.81 1004.05 1004.33 1004.49 1004.77 1005.01 1005.21 1005.37 1005.57 1005.77 1005.81 1006.01 1006.25 1006.37 1006.57 1006.77 1006.93 1007.05 1007.25 1007.37 1007.49 1007.69 1007.81 1008.01 1008.17 1008.37 1008.49 1008.61 1008.81 1009.01 1009.13 1009.33 1009.49 1009.61 1009.81 1010.05 1010.25 1010.37 1010.57 1010.77 1010.81 1010.81 1010.81 1010.77 1010.77 1010.81 1011.01 1011.21 1011.45 1011.77 1011.89 1011.93 1012.05 1012.17 1012.33 1012.49 1012.69 1012.81 1012.81 1012.81 1012.81 1012.89 1013.01 1013.13 1013.21 1013.37 1013.45
1003.25 1003.45 1003.69 1003.89 1004.13 1004.37 1004.57 1004.81 1005.01 1005.21 1005.45 1005.61 1005.77 1005.93 1006.13 1006.33 1006.49 1006.69 1006.81 1007.01 1007.21 1007.33 1007.45 1007.57 1007.77 1007.93 1008.13 1008.33 1008.45 1008.57 1008.77 1008.89 1009.01 1009.21 1009.33 1009.45 1009.61 1009.81 1009.93 1010.13 1010.25 1010.37 1010.49 1010.57 1010.49 1010.49 1010.49 1010.61 1010.77 1010.93 1011.21 1011.45 1011.69 1011.81 1011.93 1012.05 1012.25 1012.45 1012.61 1012.77 1012.77 1012.77 1012.69 1012.69 1012.77 1012.89 1013.01 1013.13 1013.21
1003.05 1003.33 1003.57 1003.69 1003.93 1004.17 1004.45 1004.61 1004.81 1005.01 1005.25 1005.45 1005.61 1005.77 1005.93 1006.17 1006.33 1006.49 1006.69 1006.81 1007.01 1007.13 1007.33 1007.45 1007.61 1007.81 1007.93 1008.17 1008.33 1008.49 1008.61 1008.77 1008.89 1009.01 1009.13 1009.25 1009.45 1009.57 1009.69 1009.81 1010.01 1010.05 1010.17 1010.17 1010.17 1010.25 1010.25 1010.33 1010.45 1010.61 1010.81 1011.05 1011.33 1011.57 1011.81 1012.01 1012.05 1012.25 1012.45 1012.61 1012.69 1012.69 1012.61 1012.57 1012.57 1012.69 1012.81 1012.89 1013.01
1002.93 1003.13 1003.37 1003.57 1003.81 1004.01 1004.25 1004.45 1004.61 1004.89 1005.05 1005.25 1005.45 1005.61 1005.77 1006.01 1006.13 1006.33 1006.49 1006.69 1006.89 1007.01 1007.13 1007.33 1007.49 1007.69 1007.81 1008.01 1008.17 1008.33 1008.45 1008.57 1008.69 1008.81 1008.93 1009.13 1009.33 1009.45 1009.49 1009.61 1009.81 1009.89 1010.01 1010.01 1010.01 1010.01 1010.05 1010.05 1010.17 1010.37 1010.61 1010.89 1011.05 1011.33 1011.57 1011.77 1011.89 1012.05 1012.25 1012.45 1012.57 1012.69 1012.61 1012.57 1012.49 1012.49 1012.57 1012.69 1012.77
1002.69 1003.01 1003.21 1003.37 1003.61 1003.89 1004.05 1004.33 1004.49 1004.77 1004.93 1005.13 1005.37 1005.49 1005.61 1005.81 1005.93 1006.13 1006.37 1006.57 1006.69 1006.81 1007.01 1007.13 1007.37 1007.49 1007.61 1007.81 1008.01 1008.13 1008.25 1008.33 1008.45 1008.61 1008.81 1009.01 1009.21 1009.37 1009.45 1009.57 1009.69 1009.77 1009.89 1009.93 1009.93 1009.93 1009.93 1010.01 1010.13 1010.25 1010.57 1010.89 1011.05 1011.25 1011.45 1011.61 1011.77 1011.89 1012.05 1012.25 1012.45 1012.57 1012.57 1012.45 1012.45 1012.37 1012.45 1012.49 1012.57
1002.57 1002.81 1003.05 1003.25 1003.49 1003.77 1003.93 1004.13 1004.37 1004.57 1004.81 1005.01 1005.25 1005.37 1005.49 1005.77 1005.89 1006.01 1006.17 1006.37 1006.57 1006.77 1006.93 1007.01 1007.21 1007.25 1007.45 1007.61 1007.77 1007.89 1007.93 1008.13 1008.25 1008.45 1008.61 1008.81 1009.01 1009.25 1009.37 1009.49 1009.57 1009.69 1009.77 1009.89 1009.93 1010.01 1010.05 1010.05 1010.17 1010.37 1010.61 1011.01 1011.25 1011.37 1011.57 1011.77 1011.81 1011.89 1012.01 1012.13 1012.25 1012.33 1012.33 1012.33 1012.25 1012.25 1012.25 1012.33 1012.37
1002.45 1002.69 1002.93 1003.13 1003.37 1003.61 1003.81 1004.05 1004.25 1004.45 1004.61 1004.89 1005.13 1005.25 1005.37 1005.61 1005.69 1005.89 1006.05 1006.25 1006.49 1006.61 1006.77 1006.89 1007.01 1007.13 1007.25 1007.37 1007.49 1007.61 1007.77 1007.89 1008.01 1008.17 1008.37 1008.57 1008.81 1009.01 1009.25 1009.37 1009.49 1009.61 1009.69 1009.81 1009.89 1010.01 1010.05 1010.13 1010.25 1010.45 1010.77 1011.05 1011.33 1011.49 1011.61 1011.81 1011.81 1011.89 1011.93 1012.01 1012.05 1012.13 1012.13 1012.13 1012.13 1012.05 1012.13 1012.13 1012.17
1002.25 1002.49 1002.81 1003.01 1003.25 1003.49 1003.77 1003.93 1004.13 1004.33 1004.49 1004.77 1004.93 1005.05 1005.25 1005.37 1005.57 1005.77 1005.89 1006.13 1006.33 1006.49 1006.61 1006.69 1006.89 1007.01 1007.13 1007.21 1007.33 1007.45 1007.57 1007.69 1007.81 1008.01 1008.13 1008.33 1008.49 1008.69 1008.93 1009.21 1009.37 1009.49 1009.61 1009.69 1009.77 1009.93 1010.13 1010.25 1010.37 1010.57 1010.81 1011.05 1011.25 1011.45 1011.57 1011.61 1011.77 1011.89 1011.89 1011.93 1012.01 1012.01 1012.01 1012.05 1012.01 1012.01 1012.01 1012.01 1012.01
1002.13 1002.37 1002.57 1002.81 1003.13 1003.37 1003.61 1003.81 1004.01 1004.17 1004.33 1004.49 1004.77 1004.93 1005.13 1005.25 1005.45 1005.61 1005.81 1006.01 1006.17 1006.37 1006.45 1006.57 1006.69 1006.89 1007.01 1007.05 1007.21 1007.33 1007.45 1007.57 1007.69 1007.81 1007.93 1008.05 1008.17 1008.45 1008.69 1008.89 1009.21 1009.37 1009.45 1009.49 1009.69 1009.89 1010.05 1010.17 1010.37 1010.57 1010.77 1010.93 1011.13 1011.33 1011.45 1011.49 1011.61 1011.69 1011.81 1011.89 1011.89 1011.89 1011.93 1012.01 1011.93 1011.89 1011.89 1011.89 1011.89
1001.93 1002.13 1002.37 1002.61 1002.93 1003.21 1003.45 1003.61 1003.81 1004.01 1004.13 1004.33 1004.57 1004.77 1004.93 1005.05 1005.25 1005.45 1005.61 1005.81 1006.01 1006.17 1006.37 1006.45 1006.57 1006.69 1006.81 1007.01 1007.05 1007.21 1007.33 1007.45 1007.61 1007.77 1007.89 1008.01 1008.13 1008.25 1008.45 1008.69 1008.89 1009.13 1009.33 1009.45 1009.57 1009.69 1009.89 1010.05 1010.25 1010.45 1010.57 1010.77 1010.93 1011.13 1011.25 1011.33 1011.45 1011.49 1011.61 1011.69 1011.77 1011.81 1011.89 1011.89 1011.81 1011.81 1011.81 1011.81 1011.77
1001.81 1002.01 1002.25 1002.37 1002.61 1002.93 1003.21 1003.45 1003.61 1003.77 1003.93 1004.13 1004.37 1004.57 1004.77 1004.93 1005.05 1005.25 1005.45 1005.69 1005.81 1005.93 1006.13 1006.33 1006.45 1006.57 1006.69 1006.89 1007.01 1007.13 1007.21 1007.37 1007.49 1007.69 1007.89 1008.01 1008.05 1008.25 1008.37 1008.57 1008.69 1008.89 1009.05 1009.25 1009.37 1009.57 1009.69 1009.81 1009.93 1010.13 1010.33 1010.49 1010.69 1010.89 1011.05 1011.21 1011.21 1011.25 1011.37 1011.45 1011.57 1011.61 1011.61 1011.69 1011.69 1011.69 1011.69 1011.69 1011.69
1001.69 1001.89 1002.05 1002.17 1002.45 1002.69 1002.93 1003.21 1003.45 1003.57 1003.77 1003.93 1004.17 1004.37 1004.57 1004.77 1004.93 1005.13 1005.33 1005.49 1005.69 1005.89 1006.01 1006.17 1006.33 1006.45 1006.57 1006.77 1006.89 1007.01 1007.05 1007.25 1007.37 1007.57 1007.77 1007.89 1008.01 1008.13 1008.33 1008.45 1008.57 1008.69 1008.81 1008.93 1009.05 1009.25 1009.37 1009.49 1009.61 1009.81 1010.01 1010.17 1010.37 1010.57 1010.77 1010.89 1010.93 1011.05 1011.13 1011.25 1011.33 1011.33 1011.37 1011.45 1011.49 1011.49 1011.49 1011.57 1011.57
1001.57 1001.69 1001.89 1002.05 1002.33 1002.57 1002.77 1003.05 1003.25 1003.45 1003.57 1003.77 1003.93 1004.13 1004.37 1004.61 1004.77 1004.93 1005.13 1005.33 1005.49 1005.77 1005.93 1006.13 1006.17 1006.33 1006.45 1006.61 1006.69 1006.89 1007.01 1007.21 1007.33 1007.45 1007.61 1007.81 1007.93 1008.05 1008.13 1008.25 1008.33 1008.45 1008.61 1008.77 1008.81 1008.93 1009.05 1009.25 1009.37 1009.49 1009.69 1009.89 1010.01 1010.17 1010.37 1010.57 1010.69 1010.81 1010.93 1011.05 1011.13 1011.21 1011.25 1011.25 1011.25 1011.33 1011.37 1011.45 1011.49
1001.37 1001.49 1001.77 1001.93 1002.05 1002.37 1002.61 1002.89 1003.05 1003.25 1003.37 1003.57 1003.77 1004.01 1004.25 1004.49 1004.61 1004.77 1005.01 1005.21 1005.37 1005.57 1005.77 1005.93 1006.05 1006.17 1006.37 1006.57 1006.61 1006.77 1006.89 1007.05 1007.21 1007.33 1007.57 1007.77 1007.81 1007.93 1008.01 1008.13 1008.13 1008.25 1008.33 1008.45 1008.61 1008.77 1008.81 1009.01 1009.13 1009.33 1009.45 1009.57 1009.69 1009.93 1010.13 1010.33 1010.49 1010.61 1010.69 1010.89 1010.93 1011.01 1011.05 1011.21 1011.21 1011.25 1011.37 1011.49 1011.61
1001.21 1001.37 1001.57 1001.77 1001.93 1002.17 1002.37 1002.57 1002.77 1003.01 1003.21 1003.37 1003.61 1003.89 1004.13 1004.25 1004.45 1004.61 1004.81 1005.01 1005.21 1005.33 1005.49 1005.61 1005.81 1006.01 1006.25 1006.37 1006.49 1006.61 1006.81 1006.93 1007.13 1007.25 1007.37 1007.57 1007.77 1007.81 1007.89 1007.89 1007.93 1008.01 1008.13 1008.17 1008.45 1008.57 1008.61 1008.77 1008.93 1009.05 1009.25 1009.45 1009.57 1009.81 1009.93 1010.05 1010.25 1010.45 1010.61 1010.81 1010.89 1011.01 1011.05 1011.21 1011.25 1011.37 1011.49 1011.57 1011.69
1001.05 1001.25 1001.37 1001.57 1001.81 1002.01 1002.17 1002.37 1002.61 1002.89 1003.05 1003.25 1003.49 1003.77 1003.93 1004.13 1004.33 1004.49 1004.61 1004.81 1005.01 1005.13 1005.33 1005.49 1005.69 1005.89 1006.05 1006.17 1006.37 1006.57 1006.69 1006.81 1007.01 1007.13 1007.25 1007.37 1007.57 1007.61 1007.77 1007.77 1007.77 1007.81 1007.93 1008.17 1008.37 1008.57 1008.69 1008.81 1008.89 1009.01 1009.25 1009.45 1009.57 1009.69 1009.81 1010.05 1010.25 1010.49 1010.77 1010.93 1011.01 1011.13 1011.21 1011.33 1011.49 1011.69 1011.77 1011.77 1011.93
1000.89 1001.05 1001.25 1001.45 1001.61 1001.81 1002.01 1002.17 1002.49 1002.69 1002.89 1003.13 1003.33 1003.57 1003.77 1003.93 1004.13 1004.33 1004.45 1004.61 1004.81 1005.05 1005.25 1005.45 1005.57 1005.77 1005.89 1006.05 1006.25 1006.45 1006.57 1006.69 1006.89 1007.01 1007.13 1007.25 1007.37 1007.49 1007.61 1007.61 1007.69 1007.81 1008.01 1008.33 1008.49 1008.61 1008.69 1008.81 1008.89 1009.01 1009.21 1009.37 1009.49 1009.61 1009.81 1010.13 1010.45 1010.81 1011.05 1011.25 1011.49 1011.61 1011.69 1011.77 1011.93 1012.01 1012.05 1012.05 1012.25
1000.69 1000.89 1001.05 1001.33 1001.49 1001.69 1001.81 1002.05 1002.33 1002.49 1002.69 1002.93 1003.21 1003.45 1003.61 1003.81 1003.93 1004.13 1004.33 1004.45 1004.61 1004.81 1005.05 1005.25 1005.33 1005.49 1005.77 1006.01 1006.13 1006.33 1006.49 1006.57 1006.69 1006.81 1006.93 1007.13 1007.33 1007.37 1007.49 1007.61 1007.77 1008.05 1008.37 1008.61 1008.81 1008.81 1008.81 1008.77 1008.81 1008.93 1009.05 1009.33 1009.49 1009.69 1009.93 1010.33 1010.77 1011.21 1011.57 1011.89 1012.13 1012.17 1012.17 1012.33 1012.45 1012.49 1012.49 1012.61 1012.77
1000.49 1000.69 1000.89 1001.13 1001.33 1001.49 1001.69 1001.93 1002.13 1002.37 1002.57 1002.81 1003.05 1003.25 1003.45 1003.61 1003.81 1004.01 1004.17 1004.33 1004.45 1004.61 1004.81 1005.01 1005.13 1005.25 1005.45 1005.69 1005.93 1006.17 1006.37 1006.45 1006.61 1006.77 1006.89 1007.01 1007.13 1007.33 1007.45 1007.69 1008.05 1008.49 1008.81 1008.89 1008.93 1008.89 1008.81 1008.69 1008.77 1008.81 1009.01 1009.37 1009.69 1009.93 1010.33 1010.77 1011.21 1011.61 1012.01 1012.25 1012.49 1012.57 1012.57 1012.69 1012.81 1013.01 1013.13 1013.21 1013.33
1000.25 1000.45 1000.69 1000.93 1001.21 1001.37 1001.57 1001.81 1002.01 1002.25 1002.45 1002.69 1002.89 1003.05 1003.33 1003.45 1003.69 1003.81 1004.01 1004.13 1004.33 1004.49 1004.61 1004.77 1004.93 1005.13 1005.33 1005.57 1005.77 1006.01 1006.25 1006.49 1006.61 1006.77 1006.89 1007.01 1007.13 1007.33 1007.49 1007.89 1008.33 1008.69 1008.93 1008.93 1008.93 1008.89 1008.81 1008.77 1008.69 1008.81 1009.05 1009.45 1009.81 1010.13 1010.57 1011.13 1011.61 1012.01 1012.33 1012.57 1012.81 1012.93 1013.01 1013.21 1013.37 1013.57 1013.69 1013.77 1013.81
1000.01 1000.25 1000.49 1000.77 1001.01 1001.21 1001.45 1001.69 1001.93 1002.13 1002.33 1002.57 1002.69 1002.89 1003.13 1003.33 1003.45 1003.57 1003.81 1004.05 1004.17 1004.33 1004.49 1004.61 1004.89 1005.13 1005.37 1005.57 1005.77 1005.93 1006.17 1006.49 1006.77 1007.05 1007.33 1007.45 1007.45 1007.49 1007.77 1008.17 1008.49 1008.81 1008.93 1008.93 1008.93 1008.89 1008.81 1008.81 1008.77 1008.81 1009.01 1009.37 1009.81 1010.33 1010.89 1011.45 1012.01 1012.37 1012.61 1012.93 1013.21 1013.45 1013.57 1013.77 1013.93 1014.13 1014.13 1014.13 1014.13
999.81 1000.05 1000.37 1000.61 1000.89 1001.13 1001.33 1001.57 1001.81 1002.01 1002.17 1002.37 1002.57 1002.69 1002.89 1003.13 1003.25 1003.37 1003.57 1003.81 1004.01 1004.25 1004.45 1004.61 1004.89 1005.13 1005.33 1005.57 1006.01 1006.37 1006.69 1007.01 1007.37 1007.81 1008.13 1008.25 1008.17 1008.13 1008.17 1008.45 1008.81 1009.05 1009.13 1009.05 1009.01 1008.93 1008.93 1008.89 1008.77 1008.69 1008.93 1009.37 1009.93 1010.57 1011.21 1011.77 1012.25 1012.61 1012.89 1013.21 1013.57 1013.81 1013.93 1014.13 1014.33 1014.37 1014.49 1014.57 1014.61
999.77 1000.01 1000.25 1000.49 1000.77 1001.01 1001.21 1001.45 1001.61 1001.81 1002.01 1002.17 1002.37 1002.49 1002.69 1002.89 1003.05 1003.21 1003.33 1003.57 1003.81 1004.05 1004.33 1004.49 1004.77 1005.05 1005.57 1006.05 1006.77 1007.49 1008.05 1008.33 1008.45 1008.49 1008.61 1008.81 1008.81 1008.81 1008.81 1009.01 1009.33 1009.37 1009.33 1009.13 1009.01 1009.01 1008.93 1008.81 1008.69 1008.69 1008.93 1009.57 1010.17 1010.77 1011.33 1011.93 1012.49 1012.89 1013.21 1013.57 1013.81 1014.05 1014.25 1014.37 1014.49 1014.69 1014.89 1015.01 1015.01
999.69 999.93 1000.17 1000.45 1000.69 1000.89 1001.05 1001.25 1001.45 1001.61 1001.81 1002.05 1002.33 1002.49 1002.57 1002.69 1002.81 1002.93 1003.13 1003.37 1003.61 1004.01 1004.37 1004.81 1005.21 1005.69 1006.33 1007.01 1007.49 1008.13 1008.69 1008.93 1009.01 1009.05 1009.13 1009.25 1009.45 1009.45 1009.49 1009.61 1009.69 1009.61 1009.49 1009.25 1009.13 1009.01 1008.93 1008.77 1008.69 1008.81 1009.21 1009.77 1010.33 1010.93 1011.49 1012.05 1012.61 1013.13 1013.45 1013.69 1014.01 1014.33 1014.57 1014.77 1014.89 1015.05 1015.25 1015.33 1015.33
999.45 999.69 999.93 1000.17 1000.45 1000.69 1000.89 1001.05 1001.21 1001.45 1001.77 1002.05 1002.25 1002.45 1002.61 1002.69 1002.81 1003.01 1003.25 1003.61 1004.01 1004.61 1005.25 1005.81 1006.33 1006.69 1007.01 1007.37 1007.93 1008.77 1009.33 1009.45 1009.57 1009.61 1009.69 1009.81 1009.93 1009.93 1009.93 1009.93 1009.93 1009.89 1009.69 1009.45 1009.21 1009.05 1008.89 1008.77 1008.69 1008.93 1009.37 1009.93 1010.57 1011.13 1011.61 1012.17 1012.77 1013.25 1013.61 1013.89 1014.17 1014.45 1014.77 1015.01 1015.21 1015.33 1015.49 1015.57 1015.57
999.05 999.37 999.61 999.89 1000.13 1000.37 1000.61 1000.81 1001.05 1001.33 1001.61 1002.01 1002.25 1002.49 1002.69 1002.89 1003.25 1003.57 1003.93 1004.45 1004.93 1005.49 1006.05 1006.49 1006.89 1007.21 1007.49 1007.81 1008.49 1009.13 1009.57 1009.77 1010.01 1010.13 1010.25 1010.33 1010.33 1010.33 1010.33 1010.33 1010.25 1010.13 1009.93 1009.61 1009.33 1009.05 1008.93 1008.81 1008.81 1009.01 1009.45 1010.05 1010.69 1011.25 1011.77 1012.17 1012.77 1013.33 1013.77 1014.13 1014.25 1014.49 1014.89 1015.21 1015.37 1015.57 1015.77 1015.81 1015.89
Wind_Speed
9 9 8 8 8 7 7 6 5 6 6 7 7 7 8 8 8 8 8 7 7 7 8 8 8 8 9 11 12 13 14 15 15 15 15 16 17 18 18 16 17 16 16 16 15 14 12 12 11 9 7 6 6 7 7 7 7 7 7 7 7 7 7 9 9 9 8 8 7
10 10 9 8 7 7 6 5 5 5 6 6 6 7 7 7 8 8 8 8 8 8 8 7 8 9 11 12 12 13 14 16 16 16 15 16 18 19 19 16 16 16 16 16 14 12 10 11 10 9 7 6 6 7 7 7 7 7 8 8 7 6 7 7 8 9 9 8 7
11 10 10 9 8 8 7 6 6 7 7 7 6 6 6 7 7 7 7 7 8 8 8 7 8 10 12 13 12 12 13 15 17 17 16 15 18 19 19 16 16 16 15 14 14 12 11 11 10 9 8 7 7 7 7 7 7 7 8 9 7 6 6 6 7 7 7 6 7
12 11 11 11 11 10 9 7 8 8 8 7 6 6 6 6 6 6 6 7 8 8 8 7 9 11 12 12 12 11 11 13 16 17 17 16 17 18 18 16 15 15 15 15 15 14 13 13 11 9 9 10 9 8 8 7 7 7 7 7 6 6 6 6 6 6 6 6 6
12 12 11 11 12 11 9 8 9 9 8 7 6 6 6 6 5 5 6 6 7 8 8 9 9 10 12 12 12 11 10 10 12 14 16 16 16 16 16 16 15 14 15 16 17 17 16 15 11 10 10 10 9 8 8 8 8 7 6 6 6 6 6 6 6 6 5 5 5
12 12 11 10 11 11 9 8 9 9 9 7 7 7 7 6 6 6 7 7 7 8 9 9 10 11 12 13 13 11 10 9 9 11 14 16 15 15 15 15 15 15 15 16 19 19 18 16 12 10 10 9 10 10 10 9 8 8 7 6 6 6 6 7 6 6 5 6 6
13 12 12 12 12 11 10 9 9 9 9 8 9 9 9 8 8 9 9 8 8 8 8 8 9 11 12 14 13 12 10 9 8 9 11 13 14 15 16 16 17 17 18 19 20 20 18 17 12 11 10 9 8 10 11 10 9 9 9 8 7 7 7 8 6 6 6 8 9
13 13 13 13 13 12 12 11 10 10 9 8 9 10 11 11 11 11 10 9 8 8 7 7 9 11 13 14 14 13 12 11 10 9 10 10 13 15 17 18 19 20 21 21 21 20 18 15 12 11 10 9 8 9 10 11 10 10 10 10 8 7 7 8 7 7 8 9 10
12 13 13 13 13 13 13 12 12 11 10 10 10 11 11 11 11 11 11 10 9 8 8 7 9 11 13 14 14 14 13 12 11 11 10 10 11 13 15 17 19 21 21 22 21 20 18 14 11 11 10 9 9 9 10 12 12 12 12 11 9 8 8 9 9 9 9 10 11
13 13 13 13 13 13 13 12 12 12 12 11 11 11 11 10 11 11 11 10 9 9 8 8 9 10 12 14 14 13 13 12 12 11 11 10 12 13 15 16 19 20 21 20 19 18 16 13 12 11 11 10 11 11 11 12 13 13 13 10 10 10 10 10 10 10 10 10 11
14 13 13 12 13 13 12 12 12 12 12 11 12 12 11 10 11 11 10 9 9 10 10 9 10 10 11 12 12 12 12 11 11 11 12 12 12 14 15 17 19 20 21 20 17 15 14 12 12 13 13 12 11 11 11 12 13 14 14 12 12 12 12 11 11 10 10 10 12
14 14 13 13 13 13 12 11 10 11 11 12 12 12 12 11 11 11 10 10 10 10 10 10 10 10 10 9 10 10 11 11 12 12 12 13 13 15 16 17 19 20 20 20 17 15 13 13 13 14 14 13 11 11 11 12 12 13 14 14 13 13 12 12 12 11 10 10 11
14 14 13 13 13 13 12 11 10 10 11 12 12 11 11 11 11 11 11 11 10 10 10 10 10 10 9 9 9 9 10 10 11 12 12 13 14 15 15 16 17 18 18 18 17 15 14 14 15 15 15 14 12 11 12 12 12 13 13 14 14 13 13 13 12 11 10 11 11
14 14 13 13 13 13 12 11 9 9 10 11 11 11 10 10 10 10 10 10 10 10 9 10 9 9 9 9 9 9 10 10 11 11 12 12 13 14 15 14 15 16 16 16 16 16 16 16 16 17 16 16 14 14 13 13 12 12 13 14 14 14 13 13 12 12 12 12 11
14 14 14 13 13 12 11 11 9 9 10 11 11 10 10 9 9 9 10 10 10 10 9 9 8 8 9 9 9 10 10 10 11 11 12 12 13 14 14 14 15 16 16 16 17 17 17 17 18 18 18 17 17 16 15 14 13 13 14 14 14 14 14 13 13 13 13 13 12
13 14 14 14 13 12 11 11 9 9 9 10 10 10 10 9 9 9 10 11 10 9 8 9 9 9 9 9 9 9 10 10 11 11 12 12 13 14 15 15 16 17 18 18 18 18 18 18 18 18 19 19 18 17 16 15 15 14 15 15 15 15 14 14 14 14 14 14 13
14 14 14 14 14 13 12 11 9 9 9 10 11 11 10 9 9 9 10 11 9 9 9 10 9 9 9 8 9 9 9 10 11 11 11 12 13 14 15 16 17 18 19 19 19 19 19 19 18 18 19 19 19 18 18 17 16 16 15 15 15 15 15 14 14 14 14 13 13
14 14 14 14 15 14 14 13 11 11 11 11 11 11 10 10 10 10 10 11 11 11 11 11 10 10 10 10 9 9 9 10 11 11 11 11 12 13 14 15 16 17 18 19 19 19 19 19 19 18 18 19 19 19 19 18 17 16 16 15 14 14 13 13 12 12 12 12 12
14 14 14 15 15 15 14 14 13 12 12 11 11 11 11 11 11 11 11 12 12 12 13 12 11 11 11 12 11 10 10 11 12 12 12 12 12 12 13 14 15 16 17 17 16 16 17 17 17 17 17 17 17 18 18 18 18 17 16 14 14 13 12 11 11 10 10 11 11
14 14 14 15 15 15 14 14 13 12 12 11 11 12 12 12 12 12 13 13 13 13 13 13 13 13 13 13 13 13 12 11 13 13 13 13 12 12 13 13 14 15 15 15 13 13 13 13 14 14 14 14 15 16 16 17 16 16 15 13 12 12 12 11 11 11 10 10 11
14 14 14 14 14 14 14 14 13 12 12 11 12 12 12 12 13 13 13 13 13 13 14 14 14 14 14 14 15 15 14 11 13 14 14 14 14 13 13 13 14 14 14 13 11 11 10 11 11 12 12 12 12 13 13 13 13 13 13 11 10 11 11 11 11 11 11 11 11
14 14 14 13 14 14 13 13 13 12 12 12 12 13 13 13 13 13 13 13 13 14 14 15 15 14 14 14 15 14 13 11 13 13 14 14 14 14 14 13 13 13 13 12 12 11 11 11 11 11 11 10 11 11 11 11 11 11 11 10 10 10 10 11 11 11 11 11 11
14 14 14 13 14 13 13 13 13 13 13 13 13 13 13 13 13 13 14 14 14 14 14 14 14 14 14 14 14 14 13 12 12 13 13 14 15 15 15 14 14 14 13 12 12 12 12 11 11 10 10 10 10 11 11 11 11 11 11 11 10 10 10 10 10 10 10 11 11
14 14 14 12 13 14 14 14 14 13 13 13 14 14 14 14 14 14 14 14 15 15 14 13 13 13 14 13 13 14 14 13 13 13 13 13 14 15 15 14 14 14 13 11 11 11 11 10 10 10 10 10 10 11 12 12 12 12 12 13 12 11 10 10 10 10 10 10 10
14 14 14 13 14 14 14 14 14 14 14 14 14 14 14 14 14 14 14 15 15 15 15 14 13 13 13 13 13 14 14 14 14 13 13 13 13 13 13 12 12 11 11 10 12 13 13 12 11 10 11 11 11 11 11 12 13 13 13 13 12 12 11 11 10 10 10 10 10
14 14 14 14 15 15 15 15 15 15 14 14 14 14 15 15 14 14 14 15 15 15 15 15 14 13 12 13 13 13 13 13 13 13 12 12 12 11 10 10 9 9 9 10 13 16 17 16 15 13 12 11 11 11 11 11 12 12 12 12 12 12 11 11 11 11 11 10 10
14 14 15 15 15 15 15 15 15 15 14 14 14 14 14 14 13 14 14 14 15 15 15 14 14 12 12 12 13 14 13 12 11 12 12 11 11 11 11 9 9 8 9 11 14 17 18 19 18 17 15 12 12 11 11 10 11 11 11 11 11 11 12 12 12 12 11 10 10
14 14 14 15 15 15 15 15 15 15 15 14 14 14 14 14 14 14 14 14 14 14 13 13 12 11 10 10 12 12 12 11 11 11 11 11 12 12 12 10 10 9 10 12 15 17 18 19 19 19 17 14 12 11 11 11 10 10 9 9 10 10 11 12 11 11 11 10 9
15 14 14 15 16 16 16 16 16 16 15 15 14 14 14 14 14 14 14 14 14 13 12 11 10 9 9 9 10 11 11 11 10 10 10 11 12 13 13 12 11 11 12 14 15 16 17 18 18 18 18 16 12 10 10 10 10 9 9 9 9 9 10 10 9 9 8 8 5
15 15 15 15 16 16 16 16 16 16 15 14 14 14 14 14 14 14 14 14 14 13 12 11 10 9 10 10 10 10 10 11 10 10 11 12 13 14 14 14 13 13 13 15 15 16 17 17 17 18 18 17 14 11 10 10 10 9 8 7 7 8 8 7 6 5 4 3 3
16 15 15 15 16 16 16 16 16 16 15 14 14 14 14 14 15 14 14 14 13 12 11 10 11 11 11 10 10 10 10 10 11 11 12 13 14 14 15 15 15 14 13 12 12 12 13 14 15 16 17 17 14 11 10 9 8 5 3 2 2 2 1 2 3 4 4 4 5
17 16 16 16 16 16 16 16 16 16 15 15 14 14 15 15 15 14 13 13 12 11 11 11 12 12 12 11 11 11 11 11 12 12 13 13 14 14 15 14 14 11 7 5 4 6 8 10 12 14 15 16 13 11 10 7 3 1 5 7 8 9 8 8 7 8 8 8 7
17 17 17 16 16 16 16 16 16 16 15 15 15 15 15 15 14 13 13 12 12 12 13 12 13 13 13 13 12 12 12 12 13 13 13 13 13 13 13 12 9 3 2 5 4 4 6 8 10 12 13 14 11 9 7 3 3 6 8 9 10 10 10 10 10 10 10 10 9
18 18 17 17 17 16 16 15 15 15 15 15 15 15 15 14 14 13 13 12 11 11 12 12 13 13 13 13 12 12 13 12 12 12 12 12 13 13 12 9 3 5 8 8 6 6 6 6 8 10 11 10 7 5 4 7 8 9 9 10 10 10 11 12 12 12 12 11 10
19 18 18 17 17 16 16 15 15 15 15 15 15 15 15 14 14 14 13 12 10 10 10 11 11 11 11 10 11 11 12 11 10 10 9 9 10 11 10 5 4 7 8 8 7 6 5 4 5 6 6 6 5 6 9 12 11 11 11 12 12 13 14 14 13 13 12 11 10
18 18 18 17 17 16 16 15 15 15 16 16 16 15 15 14 14 14 13 11 10 10 10 10 10 11 11 10 9 9 9 8 5 2 2 4 4 3 3 4 6 7 9 9 8 7 4 3 6 9 10 9 9 10 11 12 12 12 14 14 14 14 15 14 13 13 12 11 10
17 17 17 17 16 16 15 15 15 15 16 16 16 15 15 15 14 14 13 11 11 12 12 11 11 11 11 10 4 2 5 6 8 9 10 11 9 7 6 7 8 8 8 9 9 6 1 6 11 13 13 12 12 12 12 12 11 12 13 14 14 13 13 12 12 13 13 13 12
16 16 16 16 16 15 15 15 15 15 16 15 15 15 15 15 14 14 13 12 13 13 13 12 12 9 6 5 10 13 15 15 13 12 11 11 11 10 9 9 8 7 8 9 9 5 2 9 12 14 15 14 14 13 12 11 11 11 12 12 12 12 11 10 11 12 14 16 16
16 16 16 16 16 15 15 15 15 15 15 14 13 13 14 14 13 12 11 10 9 8 7 5 3 5 9 13 15 15 15 14 13 13 12 12 12 11 10 10 8 8 8 10 9 4 4 10 14 17 17 15 14 13 12 12 12 12 12 11 11 11 11 10 10 11 13 17 20
17 17 16 16 16 16 16 15 15 14 13 13 12 12 11 9 7 5 3 3 4 7 9 10 11 12 13 15 16 16 16 15 15 15 14 13 13 13 12 10 10 9 10 11 9 3 5 12 17 19 18 15 13 12 12 12 13 12 11 10 10 10 10 10 10 10 11 14 18
17 17 17 17 16 16 16 16 15 13 11 9 9 7 5 4 4 5 7 9 11 12 12 13 14 15 15 15 16 16 16 16 15 15 14 14 13 14 13 12 12 11 11 12 10 5 7 13 18 20 19 15 14 12 11 12 13 13 12 10 10 10 10 10 9 10 10 11 13
Wind_Direction
171 171 172 174 175 176 178 179 177 177 178 180 179 179 179 178 178 178 179 179 179 180 180 178 176 174 176 179 189 194 196 196 194 193 191 188 189 190 189 182 174 169 170 176 187 196 203 206 208 210 211 210 209 209 210 207 198 190 185 186 188 187 186 187 194 197 199 197 194
171 170 170 171 172 173 174 174 173 174 177 179 178 178 178 178 177 176 177 179 180 180 179 177 173 172 174 177 185 191 195 196 197 196 194 192 192 193 194 191 182 177 174 177 185 194 202 206 208 210 213 214 212 213 212 208 199 191 187 190 191 189 187 191 196 197 197 199 198
172 171 171 172 173 174 175 175 175 175 176 177 175 176 178 179 177 175 175 178 178 177 176 174 173 172 172 174 180 187 192 195 196 197 197 195 194 195 197 196 191 186 183 183 189 196 204 207 208 210 212 213 213 213 213 210 200 192 189 193 194 191 190 196 198 198 197 201 201
174 174 174 176 177 178 177 176 175 176 176 175 171 173 177 180 178 176 173 172 172 173 174 172 173 173 173 171 175 181 189 195 196 197 197 197 196 197 198 198 196 193 192 192 197 202 207 207 208 209 210 211 211 212 212 209 200 195 193 195 196 194 194 198 198 197 198 202 203
177 177 177 178 180 180 179 176 175 176 176 173 170 172 176 177 177 174 172 170 171 172 171 170 172 173 173 171 172 175 181 191 196 197 197 197 198 198 199 198 198 199 199 201 204 207 208 206 206 207 207 208 209 210 210 205 200 198 197 198 199 198 198 199 199 198 198 202 204
179 179 179 179 181 181 179 176 177 177 177 175 173 174 176 175 175 175 176 175 173 170 167 167 170 172 172 171 171 172 175 181 190 195 196 195 197 198 199 199 200 202 205 208 210 211 210 205 205 205 205 206 208 210 208 203 200 199 199 200 202 201 201 202 201 200 199 201 203
179 180 180 180 182 183 181 177 178 178 178 178 177 179 179 177 177 178 180 180 176 173 170 167 170 171 171 172 173 174 175 177 182 187 191 191 193 195 197 199 201 203 206 210 212 213 211 206 206 205 204 204 207 208 206 201 199 199 201 202 203 203 203 204 203 201 200 201 203
180 180 181 181 183 184 183 177 177 179 181 182 182 183 182 180 178 179 181 182 182 179 175 171 171 171 171 172 175 177 178 178 179 182 184 187 190 193 195 198 200 204 207 210 211 211 209 207 206 205 204 203 205 206 204 201 198 200 202 204 204 204 205 206 205 203 202 202 204
180 181 182 182 183 184 183 179 179 181 184 186 186 185 184 183 181 181 183 186 185 180 175 173 173 171 170 171 174 177 180 180 181 181 182 184 187 191 195 198 202 205 207 210 210 208 206 205 205 205 204 202 204 204 203 200 199 201 204 206 205 205 206 207 206 204 203 202 205
179 180 181 182 183 183 183 180 181 183 186 187 186 186 185 184 183 184 186 188 184 180 177 176 174 172 171 171 173 177 180 181 182 182 183 184 188 192 196 200 203 206 209 211 210 208 205 204 205 205 205 203 203 204 203 201 201 203 204 207 206 205 206 208 207 205 204 205 207
177 178 179 180 181 181 181 180 182 185 187 188 187 186 187 187 187 187 187 186 183 182 180 177 176 175 174 172 173 175 178 181 182 184 185 187 191 196 200 203 206 209 210 211 211 211 210 208 207 207 206 204 203 203 204 203 204 205 206 208 206 205 205 207 207 207 207 208 209
175 176 177 178 178 179 180 181 182 186 189 190 189 188 189 190 189 188 187 185 184 183 182 178 177 177 177 175 174 174 176 179 181 183 186 190 194 199 203 207 210 212 212 212 211 212 213 215 212 210 208 205 204 204 205 205 206 207 209 209 206 205 205 206 207 208 210 211 212
174 174 175 177 177 178 179 182 183 186 189 191 190 190 190 191 189 188 187 186 185 184 182 179 178 178 178 177 175 174 175 176 178 181 185 189 193 198 203 208 211 214 215 214 212 211 212 214 214 213 211 208 206 205 205 204 206 209 211 211 208 206 205 205 206 209 211 213 215
173 174 175 175 176 177 179 182 183 186 189 191 191 190 190 191 189 188 188 189 187 185 182 179 179 179 179 178 176 175 174 174 175 178 181 184 189 194 198 204 208 212 215 217 214 212 211 211 212 213 213 211 210 208 206 204 207 210 213 213 211 208 206 205 206 208 211 214 216
173 174 175 174 175 177 179 182 183 186 188 191 190 189 189 189 188 188 189 191 189 186 182 179 179 180 180 178 176 175 174 174 175 176 178 180 185 189 193 198 203 207 212 216 216 215 212 210 209 210 211 213 212 210 208 205 207 211 214 216 213 210 207 205 205 207 210 212 215
175 175 175 175 177 178 181 183 183 185 187 190 189 188 187 188 186 187 189 191 188 186 183 181 180 179 179 178 177 176 176 177 178 179 179 180 184 187 191 195 200 204 209 213 216 216 214 211 208 207 207 209 210 210 209 207 208 211 215 217 216 213 209 207 206 207 209 210 213
177 176 176 177 178 180 182 183 183 184 186 188 187 186 185 185 184 186 188 189 187 186 185 185 182 181 179 179 180 180 180 182 183 184 184 184 186 188 191 195 199 204 208 212 215 216 215 212 209 205 203 203 204 206 207 207 208 209 213 216 217 216 213 209 207 207 208 209 212
179 178 178 178 180 181 182 183 183 183 184 185 185 185 184 183 183 184 186 188 188 187 186 186 186 185 184 184 185 185 186 188 189 189 189 189 190 191 194 196 201 205 208 212 214 215 215 213 209 205 201 198 199 201 203 205 206 208 210 214 218 219 218 214 211 209 208 209 211
181 180 180 180 181 181 182 182 183 182 182 183 184 184 184 184 183 183 185 188 189 188 187 187 188 189 189 188 189 190 192 192 193 192 192 191 193 194 197 199 202 206 210 213 215 216 215 212 208 204 200 198 198 199 202 204 206 207 208 211 217 221 222 220 215 213 211 210 212
181 181 181 181 180 181 181 182 182 182 181 181 183 184 184 184 184 184 185 188 189 189 188 188 190 191 191 192 193 194 196 196 195 194 194 193 194 197 200 202 205 207 210 213 215 216 215 211 205 202 200 200 201 203 205 207 209 210 210 211 215 219 221 221 219 217 216 215 214
181 180 181 180 179 180 181 182 182 181 180 180 182 183 184 183 184 185 186 187 188 189 190 190 191 192 193 194 195 197 198 199 197 196 195 194 195 197 201 204 207 208 209 210 212 213 213 210 203 201 200 202 206 208 211 213 215 215 215 215 216 218 220 221 220 219 219 218 217
181 180 179 179 179 179 180 182 182 181 180 180 182 183 184 183 185 186 186 186 188 190 192 193 193 194 194 195 196 197 198 200 199 198 197 195 196 198 200 204 208 209 209 208 208 209 211 212 208 204 203 204 208 212 216 219 222 224 224 224 223 223 222 223 222 222 221 221 220
181 179 179 180 179 179 180 182 183 183 182 182 183 185 185 186 187 186 186 185 188 191 193 195 195 196 197 197 197 198 199 200 201 201 200 198 198 198 200 203 207 209 210 208 207 207 209 211 212 210 209 208 211 213 216 219 223 227 230 231 230 229 228 227 227 226 225 225 224
182 181 180 180 179 179 180 183 185 186 185 184 185 186 187 188 188 187 187 187 189 192 194 196 197 198 199 199 200 200 200 201 202 203 204 202 201 200 200 201 205 208 210 210 207 205 205 207 210 212 212 212 213 215 216 218 220 224 227 230 232 233 233 232 232 231 230 230 230
184 182 181 181 180 180 181 184 187 188 188 187 186 187 188 189 189 189 188 189 191 193 195 198 199 199 200 201 202 202 202 202 203 204 205 206 205 202 201 200 203 205 207 209 206 204 203 202 204 207 210 211 213 215 216 218 219 220 222 224 227 230 232 235 236 236 235 235 235
186 184 183 182 181 181 183 185 188 190 190 188 187 188 189 190 190 190 190 190 191 193 195 198 199 200 201 202 202 203 203 203 203 203 204 206 207 206 204 203 203 204 206 207 206 205 204 203 202 203 205 208 210 212 215 218 218 219 219 221 222 225 228 232 235 237 237 237 236
187 186 185 183 182 182 184 186 189 191 191 190 188 188 189 190 191 191 191 191 192 193 195 198 200 201 201 203 204 204 204 203 202 202 202 203 205 206 207 207 206 206 206 206 206 206 206 205 204 203 203 206 208 210 213 217 219 220 221 221 223 224 226 230 232 234 235 236 236
188 187 185 183 183 184 185 187 189 191 192 191 189 189 189 190 191 192 193 193 192 193 194 198 200 200 201 204 204 203 202 201 200 200 201 202 204 206 207 209 209 208 208 206 207 208 208 209 208 206 205 205 208 211 214 216 219 220 222 223 226 227 229 230 233 234 235 237 237
188 187 185 184 184 185 186 188 190 191 192 192 190 188 188 189 191 192 193 193 192 192 194 197 198 199 200 202 203 202 201 200 200 200 201 203 206 207 209 210 211 211 210 207 208 209 211 211 211 210 209 207 209 212 215 218 220 222 224 226 227 230 232 234 237 239 241 241 231
189 188 186 185 185 185 187 189 190 191 192 191 190 188 188 189 191 192 193 193 192 192 193 193 194 196 198 199 200 200 200 201 201 201 202 204 207 210 212 213 214 214 213 210 211 212 213 214 214 214 212 210 211 214 218 221 223 226 229 233 236 239 242 246 256 262 260 233 154
190 189 188 187 186 187 188 189 189 190 191 191 189 188 188 190 192 193 193 193 192 192 191 190 192 194 196 196 197 199 201 202 203 204 205 206 209 212 214 216 217 217 216 213 215 219 222 223 221 219 216 212 212 214 218 221 224 230 243 272 300 317 345 43 43 42 49 75 95
190 190 190 189 189 189 188 188 188 189 190 190 189 189 189 190 192 193 193 193 191 190 189 190 192 194 195 196 198 200 202 204 205 207 208 209 212 214 216 218 219 219 220 220 240 247 245 239 233 227 221 215 214 215 216 217 208 69 47 43 40 41 44 49 45 43 45 53 63
191 191 191 191 191 190 189 188 188 188 189 190 189 189 190 191 192 193 193 193 191 190 190 191 193 194 196 197 199 201 203 205 207 208 209 211 213 215 217 218 216 218 18 14 344 306 274 254 242 234 226 217 216 214 208 183 88 68 62 59 54 52 53 54 50 46 46 49 53
191 191 192 192 192 191 190 188 188 188 189 189 190 190 190 191 192 193 194 194 193 193 192 193 194 196 197 197 198 201 203 207 208 210 211 213 215 217 217 211 162 53 31 11 348 319 288 259 242 232 224 213 206 186 135 91 80 75 73 69 62 56 53 53 50 48 47 49 54
191 191 192 192 192 191 190 189 189 188 189 190 191 191 191 191 192 193 194 194 194 194 195 195 196 197 197 198 199 200 203 206 210 213 217 222 224 221 215 187 99 50 24 360 340 319 294 251 219 200 185 167 147 118 100 89 85 82 77 71 64 59 57 55 53 51 50 51 55
190 191 191 191 191 191 191 190 189 189 190 191 192 192 192 193 194 194 194 193 193 194 196 197 197 198 198 198 199 201 203 205 202 211 336 331 295 240 185 120 73 39 14 351 335 321 297 178 146 136 128 120 113 105 99 95 91 87 83 78 72 67 65 63 61 57 54 52 53
191 191 191 191 191 191 191 190 190 191 192 193 193 193 193 194 195 196 195 192 193 195 197 197 197 199 199 193 167 78 32 30 49 52 45 29 25 37 62 72 50 25 360 341 331 320 262 150 135 126 120 114 111 107 104 100 96 91 87 84 80 76 73 70 66 62 58 55 55
192 192 191 191 191 192 191 191 191 192 192 193 193 193 194 194 196 197 195 193 195 197 199 201 198 193 175 118 77 58 45 38 40 45 48 43 35 35 42 51 37 15 350 338 331 316 196 153 133 122 116 114 114 111 107 103 99 95 92 89 85 80 76 73 69 65 62 59 58
190 191 192 192 192 192 192 192 192 192 192 191 192 193 195 196 197 197 194 192 191 189 185 183 160 103 84 77 71 62 52 45 43 44 46 46 38 36 38 43 30 11 352 342 335 315 176 151 127 117 112 112 113 112 109 106 103 99 97 94 90 84 79 75 72 69 65 61 60
187 188 190 191 192 192 193 194 194 192 189 187 189 191 192 192 190 179 158 132 101 84 78 76 75 75 77 80 77 71 63 54 50 48 47 47 42 39 37 37 27 13 359 348 346 344 151 141 122 115 112 111 111 111 111 109 106 102 99 96 94 90 84 78 74 71 67 63 60
184 185 187 189 190 191 193 195 193 188 182 176 176 173 164 132 98 81 77 79 81 83 83 82 81 80 80 80 81 79 74 65 58 54 51 49 46 41 38 34 28 19 9 0 4 34 115 126 118 115 113 113 113 114 114 113 109 105 101 99 97 94 90 83 77 72 68 64 61